Regional Weather Roundup
Issued by NWS

Home | Current Version | Previous Version | Graphics & Text | Print | Product List | Glossary On
Versions: 1 2 3 4 5 6 7 8 9 10 11 12 13 14 15 16 17 18 19 20 21 22 23 24 25 26 27 28 29 30 31 32 33 34 35 36 37 38 39 40 41 42 43 44 45 46 47 48 49 50
000
ASUS43 KTOP 301308
RWRKS

WEATHER ROUNDUP FOR KANSAS
NATIONAL WEATHER SERVICE GOODLAND KS
800 AM CDT MON MAR 30 2015

NOTE:  "FAIR" INDICATES FEW OR NO CLOUDS BELOW 12,000 FEET WITH NO
SIGNIFICANT WEATHER AND/OR OBSTRUCTIONS TO VISIBILITY.

KSZ001>006-013>018-027>032-041>047-301400-
NORTHWEST KANSAS

CITY           SKY/WX    TMP DP  RH WIND       PRES   REMARKS
GOODLAND       CLEAR     44  25  47 S15       30.11S
HAYS           CLEAR     36  18  48 W5        30.17R
HILL CITY      PTCLDY    45  22  40 SW14G23   30.13F
RUSSELL        CLEAR     42  29  59 S14       30.14F
$$

KSZ061>065-074>080-084>089-301400-
SOUTHWEST KANSAS

CITY           SKY/WX    TMP DP  RH WIND       PRES   REMARKS
DODGE CITY     CLEAR     39  27  62 S9        30.19S
ELKHART          N/A     46  25  44 S10         N/A
GARDEN CITY    CLEAR     38  28  67 S9        30.15S
GREAT BEND     CLEAR     37  28  70 S7        30.18F
LIBERAL        CLEAR     43  28  56 SW8       30.21R
PRATT          CLEAR     36  30  80 S6        30.20F
$$

KSZ066>073-081>083-090>101-301400-
SOUTHEAST KANSAS

CITY           SKY/WX    TMP DP  RH WIND       PRES   REMARKS
CHANUTE        CLEAR     33  33 100 CALM      30.23S
COFFEYVILLE    CLEAR     34  33  96 CALM      30.22S
HUTCHINSON     CLEAR     35  28  75 CALM      30.21R
MEDICINE LODGE   N/A     36  31  82 CALM      30.20S
NEWTON         CLEAR     41  30  65 S9        30.21R
PARSONS        CLEAR     33  31  92 CALM      30.23S
WICHITA INTL   PTCLDY    37  31  78 CALM      30.20S
WICHITA JABRA  CLEAR     38  33  82 S6        30.20S
WICHITA MCCONL CLEAR     41  34  75 SE3       30.20S
WINFIELD       FAIR      36  32  85 CALM      30.21R
$$

KSZ007>012-019>026-033>040-048>060-102>105-301400-
NORTHEAST KANSAS

CITY           SKY/WX    TMP DP  RH WIND       PRES   REMARKS
CONCORDIA      CLEAR     48  28  46 S17       30.14S
EMPORIA        CLEAR     36  31  82 S10       30.18F WCI  28
LAWRENCE       MOCLDY    30  28  92 CALM      30.20S
MANHATTAN      CLEAR     30  28  92 CALM      30.17F FOG
MARYSVILLE     CLEAR     34  32  93 S7        30.15S
OLATHE IND     PTCLDY    36  33  89 S7        30.21R
OLATHE EXE     PTCLDY    39  34  82 SW3       30.19R
SALINA         CLEAR     34  27  75 S8        30.18S
TOPEKA BILLARD MOCLDY    34  31  88 SE5       30.19F
TOPEKA FORBES  CLOUDY    38  31  76 S5        30.18S
$$


USA.gov is the U.S. government's official web portal to all federal, state and local government web resources and services.